| time (UTC) | temp F | wind direction | speed knots | gust knots | rain 1hr in | rain 24hr in | rain mn in | humidity % | barometer mb |
| 20260504050505 | 61 | 167 | 4.3 | 11.3 | 0.00 | 0.00 | 0.00 | 31 | 1010.2 |
| 20260504045505 | 61 | 186 | 2.6 | 6.1 | 0.00 | 0.00 | 0.00 | 33 | 1010.0 |
| 20260504044506 | 62 | 97 | 3.5 | 5.2 | 0.00 | 0.00 | 0.00 | 31 | 1009.6 |
| 20260504043507 | 63 | 110 | 2.6 | 5.2 | 0.00 | 0.00 | 0.00 | 31 | 1009.6 |
| 20260504042506 | 63 | 79 | 3.5 | 6.1 | 0.00 | 0.00 | 0.00 | 30 | 1009.7 |
| 20260504041506 | 63 | 94 | 3.5 | 5.2 | 0.00 | 0.00 | 0.00 | 30 | 1009.9 |
| 20260504040507 | 64 | 77 | 3.5 | 7.8 | 0.00 | 0.00 | 0.00 | 30 | 1010.0 |
| 20260504035507 | 64 | 96 | 4.3 | 9.6 | 0.00 | 0.00 | 0.00 | 30 | 1010.1 |
| 20260504034957 | 65 | 86 | 5.2 | 10.4 | 0.00 | 0.00 | 0.00 | 30 | 1010.0 |
| 20260504033949 | 65 | 72 | 4.3 | 8.7 | 0.00 | 0.00 | 0.00 | 30 | 1010.1 |
| 20260504032947 | 65 | 76 | 4.3 | 8.7 | 0.00 | 0.00 | 0.00 | 30 | 1010.1 |
| 20260504031503 | 65 | 81 | 5.2 | 9.6 | 0.00 | 0.00 | 0.00 | 29 | 1010.0 |
| 20260504030504 | 66 | 73 | 5.2 | 10.4 | 0.00 | 0.00 | 0.00 | 29 | 1010.0 |
| 20260504025503 | 66 | 82 | 5.2 | 11.3 | 0.00 | 0.00 | 0.00 | 28 | 1010.0 |
| 20260504024504 | 66 | 79 | 7.8 | 13.9 | 0.00 | 0.00 | 0.00 | 27 | 1010.0 |
| 20260504023504 | 67 | 75 | 5.2 | 13.0 | 0.00 | 0.00 | 0.00 | 27 | 1009.9 |
| 20260504022503 | 67 | 110 | 4.3 | 8.7 | 0.00 | 0.00 | 0.00 | 27 | 1009.9 |
| 20260504021938 | 67 | 101 | 5.2 | 8.7 | 0.00 | 0.00 | 0.00 | 27 | 1009.7 |
| 20260504020939 | 67 | 91 | 5.2 | 11.3 | 0.00 | 0.00 | 0.00 | 26 | 1009.7 |
| 20260504015458 | 67 | 89 | 6.1 | 10.4 | 0.00 | 0.00 | 0.00 | 26 | 1009.7 |
| 20260504014931 | 67 | 67 | 3.5 | 8.7 | 0.00 | 0.00 | 0.00 | 25 | 1009.6 |
| 20260504013454 | 68 | 78 | 2.6 | 5.2 | 0.00 | 0.00 | 0.00 | 25 | 1009.5 |
| 20260504012453 | 68 | 108 | 3.5 | 7.8 | 0.00 | 0.00 | 0.00 | 25 | 1009.5 |
| 20260504011454 | 69 | 104 | 4.3 | 7.8 | 0.00 | 0.00 | 0.00 | 24 | 1009.5 |
| 20260504010454 | 69 | 124 | 6.1 | 11.3 | 0.00 | 0.00 | 0.00 | 25 | 1009.5 |
| 20260504005453 | 70 | 129 | 7.8 | 16.5 | 0.00 | 0.00 | 0.00 | 24 | 1009.7 |
| 20260504004937 | 70 | 131 | 5.2 | 12.2 | 0.00 | 0.00 | 0.00 | 25 | 1010.1 |
| 20260504003453 | 69 | 111 | 10.4 | 18.2 | 0.00 | 0.00 | 0.00 | 25 | 1010.2 |
| 20260504002453 | 69 | 103 | 5.2 | 13.9 | 0.00 | 0.00 | 0.00 | 25 | 1010.1 |
| 20260504001452 | 69 | 78 | 1.7 | 7.0 | 0.00 | 0.00 | 0.00 | 27 | 1010.3 |
| 20260504000451 | 69 | 347 | 3.5 | 6.1 | 0.00 | 0.00 | 0.00 | 26 | 1010.3 |
| 20260503235451 | 69 | 72 | 6.1 | 17.4 | 0.00 | 0.00 | 0.00 | 27 | 1010.4 |
| 20260503234453 | 69 | 110 | 6.1 | 14.8 | 0.00 | 0.00 | 0.00 | 27 | 1010.7 |
| 20260503233452 | 69 | 120 | 8.7 | 15.6 | 0.00 | 0.00 | 0.00 | 28 | 1010.7 |
| 20260503232451 | 71 | 153 | 6.1 | 16.5 | 0.00 | 0.00 | 0.00 | 24 | 1010.3 |
| 20260503231452 | 72 | 147 | 4.3 | 12.2 | 0.00 | 0.00 | 0.00 | 23 | 1010.2 |
| 20260503230446 | 73 | 335 | 4.3 | 9.6 | 0.00 | 0.00 | 0.00 | 23 | 1010.4 |
| 20260503225446 | 72 | 77 | 6.1 | 12.2 | 0.00 | 0.00 | 0.00 | 23 | 1010.3 |
| 20260503224925 | 73 | 115 | 4.3 | 12.2 | 0.00 | 0.00 | 0.00 | 23 | 1010.3 |
| 20260503223445 | 71 | 274 | 10.4 | 20.0 | 0.00 | 0.00 | 0.00 | 23 | 1010.6 |
| 20260503222446 | 70 | 126 | 7.0 | 14.8 | 0.00 | 0.00 | 0.00 | 24 | 1010.3 |
| 20260503221917 | 72 | 143 | 6.1 | 11.3 | 0.00 | 0.00 | 0.00 | 24 | 1010.3 |
| 20260503220445 | 72 | 115 | 3.5 | 7.0 | 0.00 | 0.00 | 0.00 | 22 | 1010.4 |
| 20260503220407 | 71 | 72 | 4.3 | 12.2 | 0.00 | 0.00 | 0.00 | 22 | 1010.4 |
| 20260503214934 | 70 | 311 | 12.2 | 26.9 | 0.00 | 0.00 | 0.00 | 24 | 1011.0 |
| 20260503213440 | 72 | 94 | 5.2 | 12.2 | 0.00 | 0.00 | 0.00 | 20 | 1010.7 |
| 20260503212912 | 73 | 89 | 7.8 | 14.8 | 0.00 | 0.00 | 0.00 | 19 | 1010.8 |
| 20260503211440 | 74 | 66 | 7.0 | 14.8 | 0.00 | 0.00 | 0.00 | 18 | 1010.7 |
| 20260503210439 | 73 | 110 | 7.8 | 14.8 | 0.00 | 0.00 | 0.00 | 19 | 1010.9 |
| 20260503205441 | 74 | 96 | 6.1 | 12.2 | 0.00 | 0.00 | 0.00 | 18 | 1010.9 |
| 20260503204440 | 74 | 65 | 2.6 | 8.7 | 0.00 | 0.00 | 0.00 | 18 | 1011.1 |
| 20260503203440 | 74 | 160 | 1.7 | 3.5 | 0.00 | 0.00 | 0.00 | 18 | 1011.3 |
| 20260503202439 | 73 | 169 | 1.7 | 6.1 | 0.00 | 0.00 | 0.00 | 19 | 1011.5 |
| 20260503201440 | 74 | 201 | 2.6 | 7.0 | 0.00 | 0.00 | 0.00 | 18 | 1011.6 |
| 20260503200434 | 74 | 155 | 2.6 | 6.1 | 0.00 | 0.00 | 0.00 | 18 | 1011.6 |
| 20260503195434 | 73 | 208 | 2.6 | 8.7 | 0.00 | 0.00 | 0.00 | 20 | 1011.7 |
| 20260503194432 | 73 | 150 | 0.9 | 3.5 | 0.00 | 0.00 | 0.00 | 20 | 1011.8 |
| 20260503193434 | 72 | 204 | 2.6 | 7.0 | 0.00 | 0.00 | 0.00 | 20 | 1012.1 |
| 20260503192434 | 74 | 160 | 1.7 | 5.2 | 0.00 | 0.00 | 0.00 | 19 | 1012.2 |
| 20260503191433 | 74 | 209 | 1.7 | 6.1 | 0.00 | 0.00 | 0.00 | 19 | 1012.3 |
| 20260503190432 | 73 | 53 | 2.6 | 10.4 | 0.00 | 0.00 | 0.00 | 20 | 1012.4 |
| 20260503185433 | 72 | 212 | 5.2 | 15.6 | 0.00 | 0.00 | 0.00 | 20 | 1012.8 |
| 20260503184434 | 72 | 204 | 5.2 | 12.2 | 0.00 | 0.00 | 0.00 | 20 | 1013.0 |
| 20260503183428 | 72 | 133 | 5.2 | 13.9 | 0.00 | 0.00 | 0.00 | 19 | 1013.4 |
| 20260503182428 | 71 | 118 | 3.5 | 10.4 | 0.00 | 0.00 | 0.00 | 20 | 1013.2 |
| 20260503181428 | 71 | 116 | 5.2 | 10.4 | 0.00 | 0.00 | 0.00 | 20 | 1013.6 |
| 20260503180426 | 71 | 178 | 4.3 | 9.6 | 0.00 | 0.00 | 0.00 | 19 | 1013.7 |
| 20260503175428 | 70 | 217 | 7.0 | 16.5 | 0.00 | 0.00 | 0.00 | 20 | 1013.9 |
| 20260503174427 | 70 | 130 | 7.0 | 14.8 | 0.00 | 0.00 | 0.00 | 21 | 1014.3 |
| 20260503173428 | 69 | 129 | 7.0 | 12.2 | 0.00 | 0.00 | 0.00 | 20 | 1014.5 |
| 20260503172425 | 69 | 101 | 5.2 | 10.4 | 0.00 | 0.00 | 0.00 | 20 | 1014.6 |
| 20260503171426 | 69 | 158 | 5.2 | 11.3 | 0.00 | 0.00 | 0.00 | 21 | 1014.8 |
| 20260503170424 | 69 | 121 | 7.0 | 13.9 | 0.00 | 0.00 | 0.00 | 20 | 1014.8 |
| 20260503150422 | 66 | 105 | 7.0 | 20.9 | 0.00 | 0.00 | 0.00 | 23 | 1015.1 |
| 20260503131407 | 63 | 116 | 3.5 | 12.2 | 0.00 | 0.00 | 0.00 | 24 | 1015.0 |
| 20260503130408 | 62 | 98 | 4.3 | 12.2 | 0.00 | 0.00 | 0.00 | 24 | 1015.0 |
| 20260503110402 | 48 | 121 | 0.9 | 1.7 | 0.00 | 0.00 | 0.00 | 47 | 1014.8 |
| 20260503090355 | 51 | 71 | 0.9 | 2.6 | 0.00 | 0.00 | 0.00 | 38 | 1014.9 |
| 20260503081353 | 48 | 165 | 0.0 | 1.7 | 0.00 | 0.00 | 0.00 | 37 | 1015.1 |
| 20260503080355 | 49 | 115 | 0.0 | 0.9 | 0.00 | 0.00 | 0.00 | 36 | 1015.2 |